Content
SEND FEEDBACK

Daily
Averages
Monthly
Summary
United States of America

DEDEDO, GUAM


Home > North America > United States > Guam
Elevation: 111 meters     Latitude: 13 33N     Longitude: 144 49E

WEATHER
 
SELECT A DAY
Number of Records: 209,340;   Date Range: 1/1/95 - 9/20/14
 
SHARE

PRINT THIS DATA

[ ← Previous Day ]
WEATHER ALMANAC - 16 JULY, 2013
[ Next Day → ]
[ °F ]   °C
Weather ElementAverageHighLow
Temperature29.5 °C32.2 °C (1:54 pm)27.2 °C (8:54 pm)
Dewpoint24.7 °C25 °C (2:54 am)22.8 °C (7:54 pm)
Humidity75.4 %88 % (9:54 pm)61 % (2:54 pm)
Barometer1009.5 hPa1010.8 hPa (9:54 pm)1007.5 hPa (3:54 pm)
Wind Speed9.8 km/h16.7 km/h (8:54 am)
Weather ElementAverage
Visibility16.1 km
Wind DirectionESE (107 °)

Weather ElementTotal
Precipitation---
Cooling Degree Days11.4 (Base 18.3)
Growing Degree Days19.7 (Base 10)
Averaged from 27 records on 16 July, 2013
WEATHER CONDITIONS BREAKOUT
WIND DIRECTION BREAKOUT
WEATHER BY HOUR - 16 JULY, 2013
[ °F ]   °C
Local TimeTemperatureDewpointHumidityBarometerVisibilityWind DirectionWind SpeedGust SpeedPrecipitationEventsConditions
1:54 AM27.8 °C24.4 °C82 %1008.8 hPa16.1 kmEast (100°)5.6 km/hPartly Cloudy
2:54 AM27.8 °C25 °C85 %1008.5 hPa16.1 kmCalmPartly Cloudy
3:54 AM27.8 °C25 °C85 %1008.5 hPa16.1 kmESE (110°)7.4 km/hClear
4:54 AM27.8 °C25 °C85 %1008.8 hPa16.1 kmESE (110°)7.4 km/hPartly Cloudy
5:54 AM27.8 °C24.4 °C82 %1008.8 hPa16.1 kmSE (130°)9.3 km/hClear
6:54 AM28.3 °C25 °C82 %1009.5 hPa16.1 kmESE (110°)7.4 km/h0 mmPartly Cloudy
7:54 AM29.4 °C25 °C77 %1009.8 hPa16.1 kmSE (130°)13 km/hPartly Cloudy
8:54 AM30.6 °C25 °C72 %1010.2 hPa16.1 kmESE (110°)16.7 km/hScattered Clouds
9:54 AM31.1 °C25 °C70 %1009.8 hPa16.1 kmESE (110°)16.7 km/hScattered Clouds
10:50 AM30 °C25 °C74 %1010.5 hPa16.1 kmEast (100°)14.8 km/h0 mmMostly Cloudy
10:54 AM30 °C25 °C74 %1009.8 hPa16.1 kmESE (110°)11.1 km/h0 mmMostly Cloudy
11:35 AM31 °C25 °C70 %1010.5 hPa16.1 kmSouth (170°)14.8 km/hMostly Cloudy
11:54 AM31.1 °C25 °C70 %1009.5 hPa16.1 kmSSE (150°)14.8 km/hMostly Cloudy
12:21 PM32 °C24 °C62 %1010.2 hPa16.1 kmSE (140°)13 km/hScattered Clouds
12:54 PM31.7 °C24.4 °C65 %1008.8 hPa16.1 kmSE (130°)13 km/hPartly Cloudy
1:54 PM32.2 °C25 °C65 %1008.1 hPa16.1 kmSE (140°)14.8 km/hScattered Clouds
2:54 PM31.7 °C23.3 °C61 %1007.8 hPa16.1 kmSE (140°)14.8 km/hScattered Clouds
3:54 PM31.7 °C24.4 °C65 %1007.5 hPa16.1 kmVariable11.1 km/hPartly Cloudy
4:54 PM30 °C25 °C74 %1008.1 hPa16.1 kmESE (120°)7.4 km/hPartly Cloudy
5:37 PM29 °C25 °C79 %1009.5 hPa16.1 kmSE (130°)5.6 km/hThunderstormThunderstorm
5:54 PM30 °C25 °C74 %1008.8 hPa16.1 kmEast (100°)7.4 km/hPartly Cloudy
6:54 PM30 °C25 °C74 %1009.5 hPa16.1 kmEast (90°)7.4 km/hPartly Cloudy
7:54 PM28.9 °C22.8 °C69 %1010.2 hPa16.1 kmENE (70°)11.1 km/h0 mmPartly Cloudy
8:54 PM27.2 °C23.9 °C82 %1010.5 hPa16.1 kmCalm0 mmRainLight Rain
9:54 PM27.2 °C25 °C88 %1010.8 hPa16.1 kmSSE (150°)5.6 km/hPartly Cloudy
10:54 PM27.2 °C24.4 °C85 %1010.8 hPa16.1 kmSE (130°)7.4 km/hPartly Cloudy
11:54 PM27.8 °C25 °C85 %1010.5 hPa16.1 kmESE (110°)7.4 km/hPartly Cloudy
Hourly data recorded from PGUM, located 0 kilometers away from Dededo, Guam







STORIES FROM OUR PARTNERS